El Centro, CA

3:26 AM PST on January 21, 2018 (GMT -0800)
El Centro Naval Air Facility

Weather History for KNJK - October, 2012

Change the Weather History Date:

Tuesday, October 30, 2012

  Actual Average Record
Temperature  
Mean Temperature 72 °F -  
Max Temperature 91 °F 80 °F 93 °F (2016)
Min Temperature 54 °F 55 °F 48 °F (1996)
Cooling Degree Days 7    
Growing Degree Days 22 (Base 50)    
Moisture  
Dew Point 30 °F    
Average Humidity 24    
Maximum Humidity 39    
Minimum Humidity 12    
Precipitation  
Precipitation 0.00 in - - ()
Sea Level Pressure  
Sea Level Pressure 29.99 in    
Wind  
Wind Speed 4 mph (WSW)    
Max Wind Speed 7 mph    
Max Gust Speed -    
Visibility 10 miles    
Events      
Averages and records for this station are not official NWS values.
T = Trace of Precipitation, MM = Missing Value Source: NWS Daily Summary

Daily Weather History Graph

Daily Weather History Graph

Search for Another Location

Airport or City:

Trip Planner

Search our weather history database for the weather conditions in past years. The results will help you decide how hot, cold, wet, or windy it might be!

Date:

Astronomy

Oct. 30, 2012 Rise Set
Actual Time 6:59 AM PDT 5:52 PM PDT
Civil Twilight 6:33 AM PDT 6:18 PM PDT
Nautical Twilight 6:04 AM PDT 6:47 PM PDT
Astronomical Twilight 5:35 AM PDT 7:16 PM PDT
Moon 6:30 PM PDT (10/30) 7:45 AM PDT (10/30)
Length of Visible Light 11h 44m
Length of Day
10h 53m
Full, 99% of the Moon is Illuminated
Oct 30
Full
Nov 6
Last Quarter
Nov 13
New
Nov 20
First Quarter
Nov 28
Full

Hourly Weather History & Observations

Time (PDT) Temp. Dew Point Humidity Pressure Visibility Wind Dir Wind Speed Gust Speed Precip Events Conditions
12:56 AM 57.9 °F 28.0 °F 32% 30.02 in 10.0 mi West 4.6 mph - N/A   Clear
1:56 AM 59.0 °F 28.0 °F 31% 30.01 in 10.0 mi West 4.6 mph - N/A   Clear
2:56 AM 57.9 °F 28.9 °F 33% 30.01 in 10.0 mi West 6.9 mph - N/A   Clear
3:56 AM 54.0 °F 27.0 °F 35% 30.00 in 10.0 mi WSW 3.5 mph - N/A   Clear
4:56 AM 57.9 °F 27.0 °F 31% 30.01 in 10.0 mi SW 5.8 mph - N/A   Clear
5:56 AM 54.0 °F 27.0 °F 35% 30.02 in 10.0 mi Calm Calm - N/A   Clear
6:56 AM 59.0 °F 25.0 °F 27% 30.02 in 10.0 mi West 5.8 mph - N/A   Clear
7:56 AM 60.1 °F 27.0 °F 28% 30.04 in 10.0 mi West 6.9 mph - N/A   Clear
8:56 AM 68.0 °F 33.1 °F 27% 30.05 in 10.0 mi West 4.6 mph - N/A   Clear
9:56 AM 75.9 °F 28.9 °F 18% 30.05 in 10.0 mi West 4.6 mph - N/A   Clear
10:56 AM 81.0 °F 25.0 °F 13% 30.05 in 10.0 mi Calm Calm - N/A   Clear
11:56 AM 84.0 °F 28.0 °F 13% 30.03 in 10.0 mi Calm Calm - N/A   Clear
12:56 PM 88.0 °F 32.0 °F 14% 30.00 in 10.0 mi ENE 5.8 mph - N/A   Clear
1:56 PM 90.0 °F 30.9 °F 12% 29.97 in 10.0 mi Variable 4.6 mph - N/A   Clear
2:56 PM 90.0 °F 30.9 °F 12% 29.95 in 10.0 mi East 4.6 mph - N/A   Clear
3:56 PM 90.0 °F 30.9 °F 12% 29.94 in 10.0 mi Calm Calm - N/A   Clear
4:56 PM 89.1 °F 32.0 °F 13% 29.93 in 10.0 mi SSE 4.6 mph - N/A   Clear
5:56 PM 82.0 °F 33.1 °F 17% 29.93 in 10.0 mi Calm Calm - N/A   Clear
6:56 PM 77.0 °F 34.0 °F 21% 29.94 in 10.0 mi Calm Calm - N/A   Clear
7:56 PM 73.0 °F 33.1 °F 23% 29.94 in 10.0 mi Calm Calm - N/A   Clear
8:56 PM 69.1 °F 37.0 °F 31% 29.95 in 10.0 mi West 4.6 mph - N/A   Clear
9:56 PM 64.9 °F 34.0 °F 32% 29.96 in 10.0 mi Calm Calm - N/A   Clear
10:56 PM 64.0 °F 33.1 °F 31% 29.96 in 10.0 mi Calm Calm - N/A   Clear
11:56 PM 60.1 °F 35.1 °F 39% 29.96 in 10.0 mi West 5.8 mph - N/A   Clear